Miscellaneous Local Product
Issued by NWS Hastings, NE

Home | Current Version | Previous Version | Graphics & Text | Print | Product List | Glossary On
Versions: 1 2 3 4 5 6 7 8 9 10 11 12 13 14 15 16 17 18 19 20 21 22 23 24 25 26 27 28 29 30 31 32 33 34 35 36 37 38 39 40 41 42 43 44 45 46 47 48 49 50
000
AXUS43 KGID 172202
MISGRI

GID CWA HOURLY WEATHER ROUNDUP
NATIONAL WEATHER SERVICE HASTINGS NE
400 PM CST TUE JAN 17 2017

NOTE: "FAIR" INDICATES FEW OR NO CLOUDS BELOW 12,000 FEET WITH NO
SIGNIFICANT WEATHER AND/OR OBSTRUCTIONS TO VISIBILITY.

...SOUTH CENTRAL NEBRASKA...

CITY           SKY/WX    TMP DP  RH WIND       PRES   REMARKS
GRAND ISLAND   SUNNY     39  35  86 SW8       30.05S WCI  33
HASTINGS       SUNNY     40  33  76 W7        30.07R
KEARNEY        SUNNY     43  30  61 W6        30.05R
ORD            SUNNY     40  29  64 S6        30.01S
YORK           SUNNY     36  32  87 MISG      30.07R
AURORA         SUNNY     37  33  85 W7        30.05S WCI  32
LEXINGTON      SUNNY     46  31  54 W5        30.04S
HOLDREGE       SUNNY     44  31  61 W7        30.05R
HEBRON         SUNNY     38  32  79 W6        30.10R WCI  33

...NEBRASKA PANHANDLE...

CITY           SKY/WX    TMP DP  RH WIND       PRES   REMARKS
CHADRON        CLOUDY    36  21  54 W5        29.93S WCI  32
ALLIANCE       SUNNY     46  15  28 SW10      29.94F
SCOTTSBLUFF    SUNNY     48  20  32 N3        29.97R
SIDNEY         SUNNY     46  28  49 SW13      29.99R

...WESTERN AND NORTH CENTRAL NEBRASKA...

CITY           SKY/WX    TMP DP  RH WIND       PRES   REMARKS
VALENTINE      SUNNY     51  11  20 SW13      29.93R
AINSWORTH      SUNNY     50  21  31 SW12      29.94S
ONEILL         SUNNY     46  33  61 S6        29.98S
BROKEN BOW     SUNNY     43  30  60 SW7       30.00S
IMPERIAL       SUNNY     44  26  49 SW8       30.03R
NORTH PLATTE   SUNNY     46  29  51 W8        30.02R
MCCOOK         SUNNY     46  27  47 SW10      30.05R

...EASTERN NEBRASKA...

CITY           SKY/WX    TMP DP  RH WIND       PRES   REMARKS
NORFOLK        SUNNY     35  30  82 SW5       30.03R WCI  31
SO SIOUX CITY  SUNNY     35  28  75 W5        30.05S WCI  31
TEKAMAH        SUNNY     34  28  79 W6        30.07S WCI  29
COLUMBUS       SUNNY     36  30  80 CALM      30.06S
ALBION         SUNNY     36  32  86 SW5       30.03S WCI  32
OMAHA EPPLEY   MOSUNNY   33  27  78 CALM      30.09R
OFFUTT AFB     SUNNY     36  32  85 W8        30.09R WCI  29
MILLARD        SUNNY     37  30  75 CALM      30.09R
LINCOLN        SUNNY     37  30  75 W8        30.10R WCI  31
NEBRASKA CITY  PTSUNNY   32  31  98 SW6       30.10R WCI  26
BEATRICE       MOSUNNY   36  32  85 W8        30.11R WCI  30
FALLS CITY     PTSUNNY   35  31  85 NW5       30.11R WCI  31

...NORTHERN KANSAS...

CITY           SKY/WX    TMP DP  RH WIND       PRES   REMARKS
GOODLAND       SUNNY     45  33  63 SW8       30.04R
HILL CITY      SUNNY     50  30  46 VRB6      30.08R
NORTON         CLEAR     48  27  43 W7        30.05S
PHILLIPSBURG   SUNNY     46  32  57 SW5       30.08S
SMITH CENTER   SUNNY     45  30  57 W5        30.09S
HAYS           SUNNY     48  31  51 W7        30.10R
RUSSELL        SUNNY     46  30  53 W9        30.09R
CONCORDIA      SUNNY     41  32  70 W8        30.10R
SALINA         SUNNY     46  30  53 W8        30.11F
TOPEKA         SUNNY     46  34  62 W7        30.11S



USA.gov is the U.S. government's official web portal to all federal, state and local government web resources and services.